Location: Ostrava
(49.8330°N, 18.2830°E)
Time: 19:23:40
(UTC+02:00)

Cosmos 2219 Rocket - Visible Passes

Search period start: 04 May 2016 00:00
Search period end: 14 May 2016 00:00
Orbit: 828 x 847 km, 71.0° (Epoch: 03 May)

Date Brightness Start Highest point End Pass type
(mag) Time Alt. Az. Time Alt. Az. Time Alt. Az.
04 May 2.5 00:13:03 45° ESE 00:13:25 46° ESE 00:18:48 10° NE visible
04 May 3.3 01:54:45 24° W 01:57:30 38° NW 02:02:46 10° NNE visible
04 May 4.6 03:40:53 10° NW 03:43:13 12° NNW 03:45:33 10° N visible
04 May 2.6 23:56:42 42° ESE 23:57:07 43° ESE 00:02:26 10° NE visible
05 May 3.2 01:38:23 25° WSW 01:41:08 40° NW 01:46:28 10° NNE visible
05 May 4.6 03:24:16 10° NW 03:26:47 13° NNW 03:29:18 10° N visible
05 May 2.7 23:40:18 39° ESE 23:40:49 40° ESE 23:46:04 10° NE visible
06 May 3.1 01:21:59 25° WSW 01:24:47 42° NW 01:30:09 10° NNE visible
06 May 4.6 03:07:40 10° NW 03:10:22 13° NNW 03:13:03 10° N visible
06 May 2.8 23:23:50 36° ESE 23:24:31 37° ESE 23:29:41 10° NE visible
07 May 3.1 01:05:31 25° WSW 01:08:25 44° NW 01:13:50 10° NNE visible
07 May 4.6 02:51:05 10° WNW 02:53:56 14° NNW 02:56:47 10° N visible
07 May 2.8 23:07:19 33° SE 23:08:13 35° ESE 23:13:18 10° NE visible
08 May 3.0 00:49:00 24° WSW 00:52:04 47° NW 00:57:32 10° NNE visible
08 May 4.6 02:34:30 10° WNW 02:37:31 14° NNW 02:40:32 10° N visible
08 May 2.9 22:50:44 30° SE 22:51:56 33° ESE 22:56:55 10° NE visible
09 May 2.9 00:32:24 23° WSW 00:35:42 50° NW 00:41:13 10° NNE visible
09 May 4.6 02:17:56 10° WNW 02:21:06 15° NNW 02:24:15 10° N visible
09 May 3.0 22:34:03 26° SE 22:35:38 31° ESE 22:40:31 10° NE visible
10 May 2.8 00:15:43 21° SW 00:19:22 53° NW 00:24:54 10° NNE visible
10 May 4.7 02:01:23 10° WNW 02:04:41 16° NNW 02:07:59 10° N visible
10 May 3.1 22:17:15 23° SE 22:19:21 29° ESE 22:24:08 10° NE visible
10 May 2.7 23:58:54 18° SW 00:03:00 56° NW 00:08:35 10° NNE visible
11 May 4.7 01:44:49 10° WNW 01:48:16 16° NNW 01:51:43 10° N visible
11 May 3.2 22:00:19 18° SE 22:03:04 27° ESE 22:07:43 10° NE visible
11 May 2.7 23:41:57 15° SW 23:46:39 59° WNW 23:52:16 10° NNE visible
12 May 4.7 01:28:16 10° WNW 01:31:51 17° NNW 01:35:26 10° N visible
12 May 3.3 21:43:11 14° SSE 21:46:47 25° ESE 21:51:18 10° NE visible
12 May 2.6 23:24:48 11° SW 23:30:19 63° WNW 23:35:57 10° NNE visible
13 May 4.7 01:11:44 10° WNW 01:15:27 17° NW 01:19:10 10° N visible
13 May 3.3 21:26:08 10° SSE 21:30:31 23° ESE 21:34:53 10° NE visible
13 May 2.5 23:08:20 10° SW 23:13:58 67° WNW 23:19:38 10° NNE visible
